[[{"header":{"parameterUnit":"m.s-1","parameterCategory":1,"la1":30.2991,"la2":30.254,"lo1":-89.0895,"lo2":-89.0444,"dy":0.0017,"dx":0.0017,"nx":28,"ny":28,"refTime":"2025-08-28T03:00:00:Z","depth":0,"parameterNumber":2,"parameterNumberName":"U-component_of_WINDS"},"data":[0,0,0,0,0,0,0,0,0,0,0,0,0,0,0,0,0,0,0,0,0,0,0,0,0,0,0,0,0,0,0,0,0,0,0,0,0,0,0,0,0,0,0,0,0,0,0,0,0,0,0,0,0,0,0,0,0,0,-2.7412,-2.7413,0,-2.7503,-2.7504,-2.7505,-2.7508,-2.7507,-2.7506,-2.7505,-2.7596,-2.7599,-2.7603,0,0,0,0,0,0,0,0,0,0,0,0,0,-2.7241,-2.7245,-2.7412,-2.7413,-2.7414,-2.7503,-2.7504,-2.7505,-2.7509,-2.7507,-2.7506,-2.7505,-2.7595,-2.7599,-2.7603,0,0,0,0,0,0,0,0,0,0,0,0,0,-2.7322,-2.7246,-2.7412,-2.7427,-2.7429,-2.7502,-2.7504,-2.7505,-2.7509,-2.7507,-2.7506,-2.7504,-2.7593,-2.7598,-2.7603,-2.7667,0,0,-2.7619,-2.7621,0,0,0,0,0,0,0,0,-2.7317,-2.7328,-2.7424,-2.7426,-2.7429,-2.7493,-2.7477,-2.756,-2.7509,-2.7479,-2.7505,-2.7503,-2.7563,-2.757,-2.7591,-2.7671,-2.7675,-2.762,-2.7623,-2.7625,-2.7626,0,0,0,0,0,0,0,-2.7312,-2.7324,-2.7448,-2.7425,-2.7428,-2.7429,-2.7438,-2.7493,-2.7528,-2.7481,-2.7482,-2.7492,-2.7564,-2.7586,-2.7593,-2.7677,-2.7619,-2.7624,-2.7627,-2.7629,-2.7816,-2.7818,0,0,0,0,0,0,-2.7304,-2.732,-2.7445,-2.7451,-2.7368,-2.7433,-2.7444,-2.7474,-2.7528,-2.7535,-2.7494,-2.7492,-2.7578,-2.7587,-2.7596,-2.7675,-2.7625,-2.763,-2.7633,-2.7814,-2.7816,-2.7818,0,0,0,0,0,0,-2.73,-2.7315,-2.7441,-2.7385,-2.7402,-2.7438,-2.7471,-2.7476,-2.7498,-2.7537,-2.7544,-2.751,-2.7577,-2.7589,-2.765,-2.7678,-2.7632,-2.7637,-2.7812,-2.7815,-2.7817,-2.7832,0,0,0,0,0,0,-2.7295,-2.7313,-2.7338,-2.7386,-2.7405,-2.7494,-2.7473,-2.7479,-2.7507,-2.7506,-2.7554,-2.756,-2.7577,-2.7642,-2.7655,-2.7684,-2.7641,-2.7809,-2.7813,-2.7816,-2.7829,-2.7835,-2.784,0,0,0,0,0,-2.7289,-2.7338,-2.7339,-2.7354,-2.7436,-2.7495,-2.7506,-2.7524,-2.751,-2.7535,-2.756,-2.7559,-2.7673,-2.7649,-2.7663,-2.7694,-2.7808,-2.7812,-2.7816,-2.7827,-2.7834,-2.784,0,0,0,0,0,0,-2.729,-2.7344,-2.7346,-2.7412,-2.745,-2.7496,-2.7528,-2.7531,-2.7572,-2.757,-2.759,-2.7601,-2.7662,-2.7684,-2.7656,-2.7759,-2.7739,-2.7746,-2.7742,-2.7749,-2.7754,-2.7747,-2.7645,0,0,0,0,0,-2.7299,-2.7343,-2.7387,-2.7441,-2.746,-2.7491,-2.7517,-2.7529,-2.7568,-2.7583,-2.7613,-2.765,-2.7695,-2.7723,-2.7766,-2.7833,-2.7844,-2.7862,-2.7867,-2.7872,-2.7877,-2.7915,-2.7923,-2.7832,-2.7832,-2.7832,0,0,-2.7316,-2.7351,-2.7377,-2.7443,-2.7473,-2.7518,-2.7504,-2.7552,-2.7585,-2.759,-2.765,-2.7673,-2.7716,-2.7781,-2.7811,-2.7801,-2.7905,-2.7877,-2.788,-2.7883,-2.792,-2.7929,-2.7936,-2.7835,-2.7835,-2.7834,0,0,-2.737,-2.7401,-2.7449,-2.748,-2.7527,-2.7547,-2.7559,-2.7606,-2.7622,-2.7683,-2.7688,-2.7728,-2.7804,-2.7835,-2.786,-2.7929,-2.7929,-2.7943,-2.797,-2.8007,-2.8014,-2.802,-2.8044,-2.8053,-2.7948,-2.7949,-2.7949,0,-2.7384,-2.7453,-2.7474,-2.7522,-2.7551,-2.7559,-2.7609,-2.7638,-2.7695,-2.7715,-2.7704,-2.7801,-2.7831,-2.7903,-2.792,-2.7941,-2.7954,-2.7936,-2.8011,-2.8018,-2.8024,-2.8048,-2.8057,-2.795,-2.795,-2.7949,-2.7949,0,-2.7469,-2.7517,-2.755,-2.7607,-2.764,-2.7689,-2.7717,-2.7748,-2.7757,-2.7779,-2.7841,-2.7878,-2.7928,-2.7947,-2.7956,-2.8021,-2.8014,-2.8007,-2.7986,-2.8034,-2.8056,-2.8065,-2.7951,-2.7951,-2.7951,-2.795,0,0,-2.7523,-2.7593,-2.7605,-2.7632,-2.7685,-2.7722,-2.7772,-2.7823,-2.7849,-2.7889,-2.7931,-2.7997,-2.7991,-2.8021,-2.8033,-2.8066,-2.8118,-2.8055,-2.8057,-2.8065,-2.8192,-2.8195,-2.8205,-2.8119,-2.8121,-2.8123,-2.8188,0,-2.7582,-2.7671,-2.7692,-2.7768,-2.7813,-2.7823,-2.7866,-2.7903,-2.7926,-2.7967,-2.7991,-2.8037,-2.8027,-2.8045,-2.8078,-2.8104,-2.8143,-2.81,-2.8158,-2.816,-2.8145,-2.8217,-2.8221,-2.8281,-2.8197,-2.8198,-2.82,0,-2.7662,-2.7706,-2.7786,-2.7835,-2.7854,-2.7893,-2.7942,-2.7982,-2.8025,-2.8039,-2.8073,-2.8083,-2.8135,-2.8114,-2.8186,-2.8157,-2.8182,-2.8199,-2.8202,-2.8206,-2.8181,-2.8223,-2.83,-2.8309,-2.8213,-2.8212,-2.8211,0,-2.7693,-2.7772,-2.783,-2.7853,-2.7911,-2.7938,-2.7964,-2.8006,-2.8036,-2.8079,-2.8099,-2.8147,-2.8173,-2.8211,-2.8234,-2.8216,-2.8305,-2.8285,-2.8317,-2.8317,-2.8334,-2.8332,-2.8415,-2.8352,-2.8352,-2.8352,-2.8352,0,-2.7755,-2.7804,-2.7845,-2.7881,-2.7936,-2.7961,-2.8015,-2.8041,-2.8078,-2.8119,-2.8131,-2.817,-2.8199,-2.8241,-2.826,-2.8317,-2.8329,-2.8342,-2.8346,-2.834,-2.8338,-2.8355,-2.8351,-2.8355,-2.8354,-2.8354,-2.8353,0,-2.7798,-2.7828,-2.7892,-2.7943,-2.7958,-2.7996,-2.804,-2.8075,-2.8099,-2.8151,-2.8165,-2.8202,-2.8253,-2.8281,-2.8344,-2.8356,-2.842,-2.8423,-2.8406,-2.8407,-2.8438,-2.8434,-2.8533,-2.8548,-2.8477,-2.8477,-2.8478,0,-2.7835,-2.7873,-2.7929,-2.7958,-2.7984,-2.803,-2.8062,-2.8088,-2.812,-2.8174,-2.8203,-2.8255,-2.8297,-2.8378,-2.841,-2.8459,-2.8462,-2.8494,-2.847,-2.8463,-2.8462,-2.8459,-2.8463,-2.8497,-2.8498,-2.8499,-2.8499,0,-2.7897,-2.7911,-2.7955,-2.8006,-2.8043,-2.8084,-2.8125,-2.8148,-2.8181,-2.8217,-2.8269,-2.8303,-2.8369,-2.842,-2.8472,-2.8498,-2.8504,-2.8507,-2.8517,-2.851,-2.8499,-2.8505,-2.8416,-2.8504,-2.8504,-2.8503,-2.8503,-2.8503,-2.7938,-2.7972,-2.8017,-2.8067,-2.8101,-2.8139,-2.8175,-2.8205,-2.825,-2.8306,-2.8319,-2.8375,-2.8419,-2.8489,-2.8518,-2.8561,-2.8555,-2.857,-2.8573,-2.8576,-2.8577,-2.8493,-2.8571,-2.8571,-2.8571,-2.8571,-2.8571,0,-2.8,-2.803,-2.8076,-2.8133,-2.8173,-2.8177,-2.8223,-2.8255,-2.8304,-2.8345,-2.8388,-2.8449,-2.85,-2.8537,-2.8589,-2.8617,-2.8621,-2.863,-2.8627,-2.8633,-2.858,-2.8565,-2.8625,-2.8625,-2.8625,-2.8625,-2.8625,-2.8625,-2.8037,-2.8095,-2.8115,-2.8191,-2.8221,-2.8276,-2.8302,-2.8338,-2.837,-2.8439,-2.8481,-2.8506,-2.8546,-2.8601,-2.8648,-2.8658,-2.8676,-2.8684,-2.8694,-2.8642,-2.8637,-2.8631,-2.8618,-2.8688,-2.8688,-2.8743,-2.8744,-2.8744]},{"header":{"parameterUnit":"m.s-1","parameterCategory":1,"la1":30.2991,"la2":30.254,"lo1":-89.0895,"lo2":-89.0444,"dy":0.0017,"dx":0.0017,"nx":28,"ny":28,"refTime":"2025-08-28T03:00:00:Z","depth":0,"parameterNumber":3,"parameterNumberName":"V-component_of_WINDS"},"data":[0,0,0,0,0,0,0,0,0,0,0,0,0,0,0,0,0,0,0,0,0,0,0,0,0,0,0,0,0,0,0,0,0,0,0,0,0,0,0,0,0,0,0,0,0,0,0,0,0,0,0,0,0,0,0,0,0,0,0.1944,0.1944,0,0.1975,0.1976,0.1976,0.2025,0.2025,0.2026,0.2027,0.2055,0.2055,0.2055,0,0,0,0,0,0,0,0,0,0,0,0,0,0.1922,0.1922,0.1944,0.1944,0.1945,0.1975,0.1976,0.1976,0.2024,0.2025,0.2027,0.2028,0.2055,0.2055,0.2055,0,0,0,0,0,0,0,0,0,0,0,0,0,0.194,0.1922,0.1944,0.1972,0.1975,0.1975,0.1976,0.1976,0.2024,0.2026,0.2027,0.2028,0.2055,0.2055,0.2055,0.2028,0,0,0.2054,0.2054,0,0,0,0,0,0,0,0,0.1939,0.1941,0.1968,0.197,0.1974,0.1998,0.1978,0.1993,0.2024,0.2005,0.2027,0.2029,0.2034,0.2036,0.2039,0.2029,0.203,0.2054,0.2054,0.2054,0.2054,0,0,0,0,0,0,0,0.1938,0.194,0.1956,0.1968,0.1972,0.1983,0.1987,0.1981,0.2012,0.2007,0.2011,0.2014,0.2036,0.2039,0.204,0.203,0.2054,0.2054,0.2054,0.2054,0.2001,0.2,0,0,0,0,0,0,0.1933,0.1938,0.1955,0.1957,0.1959,0.1982,0.1987,0.1988,0.2012,0.2017,0.2013,0.2016,0.2038,0.204,0.2041,0.2012,0.2054,0.2054,0.2054,0.2003,0.2001,0.2,0,0,0,0,0,0,0.1932,0.1934,0.1954,0.1949,0.1952,0.1981,0.1983,0.1988,0.1991,0.2017,0.2022,0.201,0.204,0.2041,0.2031,0.2013,0.2054,0.2054,0.2004,0.2002,0.2,0.1952,0,0,0,0,0,0,0.1931,0.1933,0.1924,0.1948,0.1952,0.1944,0.1982,0.1988,0.1991,0.1996,0.2016,0.202,0.2041,0.2031,0.2031,0.2014,0.2054,0.2006,0.2003,0.2001,0.1956,0.1949,0.1943,0,0,0,0,0,0.193,0.1908,0.1923,0.1925,0.1941,0.1943,0.1945,0.1971,0.199,0.198,0.1997,0.2019,0.2016,0.203,0.203,0.2012,0.2007,0.2004,0.2001,0.1958,0.195,0.1943,0,0,0,0,0,0,0.1878,0.1911,0.1929,0.1914,0.1925,0.1951,0.194,0.1961,0.1967,0.197,0.2001,0.2005,0.1991,0.2001,0.2016,0.1988,0.2015,0.2012,0.1982,0.1975,0.1969,0.1966,0.2054,0,0,0,0,0,0.1865,0.1865,0.1894,0.1877,0.1883,0.191,0.1912,0.1931,0.1944,0.1948,0.1964,0.1975,0.1976,0.1976,0.1979,0.1958,0.1963,0.1946,0.194,0.1935,0.1931,0.1922,0.1915,0.199,0.199,0.199,0,0,0.1837,0.1856,0.1853,0.1867,0.1879,0.1877,0.1914,0.191,0.1909,0.1947,0.194,0.1952,0.1965,0.195,0.1944,0.1958,0.1912,0.1931,0.1926,0.1926,0.1918,0.1911,0.1904,0.1988,0.1988,0.1988,0,0,0.1787,0.18,0.1789,0.1801,0.1818,0.1837,0.1835,0.1858,0.1868,0.1861,0.189,0.1889,0.189,0.1899,0.1904,0.1859,0.188,0.1859,0.1826,0.1817,0.1811,0.1806,0.179,0.1784,0.1856,0.1856,0.1856,0,0.1749,0.1749,0.178,0.1775,0.1781,0.1818,0.1806,0.1815,0.1832,0.1835,0.1851,0.1855,0.1866,0.1854,0.1844,0.1846,0.1844,0.1856,0.181,0.1805,0.18,0.1785,0.1779,0.1853,0.1853,0.1854,0.1854,0,0.1703,0.1703,0.1691,0.1709,0.1713,0.1705,0.1734,0.1734,0.1754,0.1771,0.1764,0.178,0.1787,0.1785,0.1803,0.1776,0.1784,0.1804,0.1831,0.179,0.1776,0.1771,0.1849,0.185,0.1851,0.1852,0,0,0.1618,0.1655,0.165,0.1659,0.1683,0.1683,0.1676,0.1685,0.1685,0.1696,0.1691,0.1693,0.1713,0.1718,0.1737,0.1729,0.1693,0.175,0.1751,0.1739,0.1664,0.1649,0.1641,0.1708,0.1707,0.1706,0.1663,0,0.1571,0.1564,0.1592,0.1577,0.1577,0.1614,0.1608,0.1622,0.1638,0.164,0.1657,0.1658,0.1684,0.1688,0.1681,0.1699,0.1678,0.1702,0.1702,0.1702,0.1697,0.1634,0.1617,0.1576,0.1658,0.1657,0.1657,0,0.1515,0.1526,0.1511,0.1537,0.1538,0.1533,0.1544,0.1546,0.1562,0.1575,0.1582,0.1606,0.1601,0.1628,0.1621,0.1637,0.1639,0.1648,0.1647,0.1647,0.1676,0.1632,0.1563,0.1557,0.1649,0.1649,0.165,0,0.1454,0.1465,0.1458,0.1465,0.1495,0.149,0.1502,0.152,0.1524,0.1534,0.1537,0.1545,0.1549,0.1555,0.158,0.1597,0.157,0.1599,0.158,0.1579,0.1571,0.1571,0.1501,0.1573,0.1573,0.1574,0.1574,0,0.1399,0.1388,0.1431,0.1427,0.1416,0.1449,0.1438,0.1453,0.1469,0.1468,0.15,0.1497,0.1531,0.1533,0.1552,0.1544,0.1545,0.1555,0.156,0.1551,0.155,0.1552,0.1555,0.1572,0.1572,0.1573,0.1573,0,0.1328,0.1357,0.1352,0.1382,0.1389,0.138,0.1405,0.1402,0.1422,0.142,0.1421,0.1451,0.1454,0.1481,0.1489,0.1503,0.1487,0.1498,0.1482,0.1485,0.1464,0.1465,0.1392,0.1384,0.1462,0.1461,0.1461,0,0.129,0.1284,0.1314,0.1316,0.1328,0.1331,0.1336,0.1369,0.1372,0.1392,0.1386,0.1393,0.14,0.1404,0.1425,0.1433,0.1443,0.1418,0.1444,0.1437,0.1443,0.1443,0.1442,0.1411,0.141,0.1409,0.1409,0,0.122,0.1235,0.1242,0.1255,0.1261,0.1271,0.1284,0.1284,0.132,0.1322,0.1328,0.1333,0.1344,0.135,0.1362,0.1373,0.1396,0.14,0.1396,0.1387,0.1378,0.1382,0.1465,0.1401,0.1402,0.1403,0.1403,0.1403,0.1165,0.1161,0.1182,0.1189,0.1203,0.1215,0.1214,0.1234,0.124,0.1252,0.1271,0.1273,0.1291,0.1309,0.1319,0.1321,0.1335,0.1329,0.1327,0.1325,0.132,0.1379,0.1323,0.1324,0.1324,0.1324,0.1324,0,0.1096,0.1112,0.1119,0.1137,0.1142,0.1167,0.1182,0.1185,0.1188,0.1203,0.121,0.1217,0.1223,0.1247,0.1256,0.1253,0.1264,0.1254,0.1254,0.1256,0.1308,0.131,0.1245,0.1245,0.1245,0.1245,0.1245,0.1245,0.1061,0.1056,0.1074,0.1076,0.1092,0.1097,0.1104,0.1115,0.1127,0.1134,0.114,0.1156,0.1175,0.1186,0.1193,0.12,0.1201,0.1188,0.1198,0.1245,0.1252,0.126,0.1262,0.1188,0.1188,0.1146,0.1146,0.1145]}]]